星链-4110 (STARLINK-4110 )

导读 | 豆包AI

STARLINK-4110是美国SpaceX星链星座的一员,于2022年7月17日发射升空,属于星链低轨互联网卫星网络的组成部分。星链计划旨在打造全球覆盖、低时延的天基通信系统,为全球提供高速卫星宽带服务,该卫星也支撑星链网络的全球覆盖能力,同时星链系统也具备潜在军事应用价值。

Basic Information
目录编号:
53166
目录名称:
STARLINK-4110
国际标识:
2022-083AL
轨道中心:
EARTH
卫星名称:
星链-4110
卫星全名:
星链-4110 (STARLINK-4110 )
卫星状态:
在轨 (已飞行1337 天)
发射日期:
2022-07-17 UTC
国别 :
美国 (US)
星等 :
--
Orbit Information
数据来源 国际轨道数据 AOE轨道数据
星历时间 2026-03-15T06:00:17+0800
8小时前
查看轨道信息
2026-03-10T06:00:00+0800
5天前
查看轨道信息
半长轴 6917.892km 6917.859km
偏心率 0.0001421 0.0001013
轨道倾角 53.217° 53.217°
近地点辐角 96.726° 106.423°
升交点赤经 140.555° 163.004°
平近点角 263.390° 78.808°
近地点 538.771km 539.021km
远地点 540.739km 540.423km
周期 95.438分钟 95.437分钟
每日圈数 15.088365 15.088473
Detailed Information
固有亮度:
5
最大亮度:
2.5
卫星平台:
Starlink v1.5
覆盖范围:
全球
运营商:
太空探索技术公司
运营商所在国:
美国
制造商(研发单位):
太空探索技术公司
制造商所在国:
美国
使用方式:
暂无
Satellite Introduction
星链(Starlink)计划是由太空探索技术公司(SpaceX)提出的一个巨型低轨卫星互联网星座项目,计划在2019年至2024年间在太空搭建由约1.2万颗卫星组成的“星链”网络,其中1584颗将部署在地球上空550千米处的近地轨道,并从2020年开始工作。该卫星仍在工作。
2D Orbit Map
3D Orbit Map
Orbit Altitude Analysis Chart
Orbit Inclination Analysis Chart
Orbit Comprehensive Analysis Chart
View Comprehensive Chart